Location: Unspecified
(0.0000°N, 0.0000°E)
Time: 05:09:51
(UTC+00:00)

Vanguard 1 - Pass Details

Date: 14 December 2017
Orbit: 649 x 3834 km, 34.3° (Epoch: 18 January)

Event Time Altitude Azimuth Distance (km) Brightness Sun altitude
Rises 11:23:39 0° 302° (WNW) 7,470 14.4 65.6°
Reaches altitude 10° 11:38:17 10° 341° (NNW) 5,294 13.7 66.4°
Maximum altitude 11:39:05 10° 344° (NNW) 5,211 13.6 66.5°
Drops below altitude 10° 11:39:52 10° 347° (NNW) 5,135 13.6 66.5°
Sets 11:49:52 0° 30° (NNE) 4,998 13.5 66.7°
